This demonstration page uses our WeatherBlox Daily Observations layout. Learn more.

Left ArrowRight Arrow

40.92945, -100.16068

Hourly Observations for September 14, 2016

Temp ( °F °C ) Dew Point ( °F °C ) Humidity (%) Winds ( mph kmh ) Pressure ( in mb ) Visibility ( mi km ) Precip ( " mm )
12:15 am 00:15 Cloudy 55 12.6 46 8 74 74 E 5 7 30.27 1025 10 16 N/A
12:35 am 00:35 Cloudy 54 12.1 46 8 76 76 E 6 9 30.30 1026 10 16 N/A
12:55 am 00:55 Cloudy 55 12.5 46 7.9 74 74 E 5 7 30.30 1026 10 16 N/A
1:15 am 01:15 Cloudy 54 12.3 47 8.1 76 76 E 3 6 30.30 1026 10 16 N/A
1:35 am 01:35 Cloudy 54 12.2 47 8.5 78 78 N N/A 30.30 1026 10 16 N/A
1:55 am 01:55 Cloudy 54 12 48 9 82 82 N 3 6 30.30 1026 10 16 N/A
2:15 am 02:15 Cloudy 54 12 47 8.4 79 79 NE 3 6 30.30 1026 10 16 N/A
2:35 am 02:35 Cloudy 54 12 47 8.1 77 77 N N/A 30.30 1026 10 16 N/A
2:55 am 02:55 Cloudy 53 11.4 47 8.3 81 81 N 3 6 30.30 1026 10 16 N/A
3:15 am 03:15 Cloudy 52 11.2 46 7.9 80 80 N 6 9 30.27 1025 10 16 N/A
3:35 am 03:35 Cloudy 52 11.1 46 7.8 80 80 N N/A 30.27 1025 10 16 N/A
3:55 am 03:55 Cloudy 52 11 45 7.4 79 79 N 5 7 30.27 1025 10 16 N/A
4:15 am 04:15 Cloudy 52 11 46 7.5 79 79 N 3 6 30.27 1025 10 16 N/A
4:35 am 04:35 Cloudy 51 10.8 45 7.4 80 80 N 3 6 30.27 1025 10 16 N/A
4:55 am 04:55 Cloudy 51 10.7 45 7.2 79 79 NE 3 6 30.27 1025 10 16 N/A
5:15 am 05:15 Cloudy 51 10.7 45 7.3 80 80 NNE 3 6 30.27 1025 10 16 N/A
5:35 am 05:35 Cloudy 51 10.6 46 7.5 81 81 NE 3 6 30.27 1025 10 16 N/A
5:55 am 05:55 Cloudy 51 10.6 46 7.5 81 81 ENE 5 7 30.27 1025 10 16 N/A
6:15 am 06:15 Cloudy 51 10.8 46 7.6 81 81 ENE 3 6 30.27 1025 10 16 N/A
6:35 am 06:35 Cloudy 51 10.7 46 7.5 81 81 ENE 5 7 30.27 1025 10 16 N/A
6:55 am 06:55 Cloudy 51 10.7 46 7.7 82 82 NE 5 7 30.27 1025 10 16 N/A
7:15 am 07:15 Cloudy 51 10.6 46 7.7 82 82 ENE 6 9 30.27 1025 10 16 N/A
7:35 am 07:35 Cloudy 51 10.7 46 7.7 82 82 ENE 7 11 30.27 1025 10 16 N/A
7:55 am 07:55 Cloudy 51 10.7 46 7.8 82 82 ENE 5 7 30.27 1025 10 16 N/A
8:15 am 08:15 Cloudy 51 10.8 46 7.9 82 82 ENE 7 11 30.27 1025 10 16 N/A
8:35 am 08:35 Cloudy 51 10.8 46 8 83 83 E 8 13 30.27 1025 10 16 N/A
8:55 am 08:55 Cloudy 52 11.1 47 8.1 82 82 E 8 13 30.27 1025 10 16 N/A
9:15 am 09:15 Cloudy 53 11.4 47 8.2 81 81 E 7 11 30.27 1025 10 16 N/A
9:35 am 09:35 Cloudy 53 11.6 47 8.5 81 81 E 6 9 30.27 1025 10 16 N/A
9:55 am 09:55 Cloudy 53 11.6 47 8.6 82 82 ESE 5 7 30.27 1025 10 16 N/A
10:15 am 10:15 Cloudy 54 12 48 9 82 82 ESE 5 7 30.27 1025 10 16 N/A
10:35 am 10:35 Cloudy 54 12.3 49 9.2 82 82 E 5 7 30.24 1024 10 16 N/A
10:55 am 10:55 Cloudy 55 12.5 49 9.6 83 83 ESE 6 9 30.24 1024 10 16 N/A
11:15 am 11:15 Cloudy 55 13 50 9.9 82 82 ESE 3 6 30.24 1024 10 16 N/A
11:35 am 11:35 Cloudy 57 13.7 51 10.4 81 81 E 6 9 30.24 1024 10 16 N/A
11:55 am 11:55 Cloudy 56 13.5 51 10.3 81 81 ESE 5 7 30.24 1024 10 16 N/A
12:15 pm 12:15 Cloudy 57 13.7 51 10.4 81 81 N N/A 30.24 1024 10 16 N/A
12:35 pm 12:35 Cloudy 57 14 51 10.6 80 80 N N/A 30.21 1023 10 16 N/A
12:55 pm 12:55 Cloudy 58 14.3 51 10.7 79 79 SE 5 7 30.21 1023 10 16 N/A
1:15 pm 13:15 Cloudy 58 14.6 52 11 79 79 SE 5 7 30.21 1023 10 16 N/A
1:35 pm 13:35 Cloudy 59 14.8 52 11.1 79 79 SSE 5 7 30.18 1022 10 16 N/A
1:55 pm 13:55 Cloudy 59 15 52 11.2 78 78 SSE 6 9 30.15 1021 10 16 N/A
2:15 pm 14:15 Cloudy 59 15.1 52 11.3 78 78 SSE 7 11 30.15 1021 10 16 N/A
2:35 pm 14:35 Cloudy 59 15.1 53 11.4 79 79 SE 9 15 30.15 1021 10 16 N/A
2:55 pm 14:55 Cloudy 59 15 53 11.6 80 80 ESE 9 15 30.12 1020 10 16 N/A
3:15 pm 15:15 Cloudy 59 15.2 53 11.7 80 80 SSE 7 11 30.12 1020 10 16 N/A
3:35 pm 15:35 Cloudy 59 15 53 11.6 80 80 ESE 7 11 30.12 1020 10 16 N/A
3:55 pm 15:55 Cloudy 60 15.3 53 11.8 80 80 SE 8 13 30.09 1019 10 16 N/A
4:15 pm 16:15 Cloudy 59 15.1 53 11.8 81 81 SE 8 13 30.09 1019 10 16 N/A
4:35 pm 16:35 Cloudy 59 15 53 11.9 82 82 SE 8 13 30.09 1019 7 11 N/A
4:55 pm 16:55 Cloudy 59 15.1 54 12.3 83 83 SE 7 11 30.09 1019 10 16 N/A
5:15 pm 17:15 Cloudy 59 15 54 12.3 84 84 SE 8 13 30.06 1018 7 11 N/A
5:35 pm 17:35 Cloudy 59 14.9 54 12.3 85 85 SE 9 15 30.06 1018 7 11 N/A
5:55 pm 17:55 Cloudy 59 15 55 12.5 85 85 ESE 8 13 30.06 1018 10 16 N/A
6:15 pm 18:15 Cloudy 59 15 55 12.5 85 85 SE 7 11 30.06 1018 10 16 N/A
6:35 pm 18:35 Cloudy 59 15.2 54 12.2 82 82 SSE 8 13 30.06 1018 10 16 N/A
6:55 pm 18:55 Cloudy 59 15.2 54 12.2 82 82 SE 9 15 30.06 1018 10 16 N/A
7:15 pm 19:15 Cloudy 59 15.1 54 12.2 83 83 SE 9 15 30.06 1018 10 16 N/A
7:35 pm 19:35 Cloudy 59 15 54 12.2 83 83 SE 10 17 30.03 1017 10 16 N/A
7:55 pm 19:55 Cloudy 59 14.8 54 12.2 85 85 SE 8 13 30.06 1018 10 16 N/A
8:15 pm 20:15 Cloudy 58 14.7 54 12.4 86 86 SSE 9 15 30.06 1018 10 16 N/A
8:35 pm 20:35 Cloudy 58 14.6 54 12.3 86 86 SSE 10 17 30.06 1018 10 16 N/A
8:55 pm 20:55 Cloudy 58 14.6 54 12.4 87 87 SE 12 19 30.06 1018 10 16 N/A
9:15 pm 21:15 Cloudy 58 14.5 55 12.5 88 88 SE 8 13 30.06 1018 10 16 N/A
9:35 pm 21:35 Mostly Cloudy 57 14.1 54 12.4 90 90 SE 8 13 30.06 1018 10 16 N/A
9:55 pm 21:55 Cloudy 58 14.3 55 12.5 89 89 SE 7 11 30.06 1018 10 16 N/A
10:15 pm 22:15 Cloudy 58 14.6 55 12.7 88 88 SE 9 15 30.06 1018 10 16 N/A
10:35 pm 22:35 Cloudy 58 14.7 55 12.8 88 88 SSE 10 17 30.06 1018 10 16 N/A
10:55 pm 22:55 Cloudy 58 14.7 55 12.9 89 89 SE 12 19 30.06 1018 10 16 N/A
11:15 pm 23:15 Cloudy 59 14.8 55 13 89 89 SE 8 13 30.06 1018 10 16 N/A
11:35 pm 23:35 Cloudy 59 15 55 13 88 88 SE 8 13 30.06 1018 10 16 N/A
11:55 pm 23:55 Cloudy 58 14.7 55 13 90 90 ESE 7 11 30.06 1018 10 16 N/A

Powered by AerisWeather